Weather History for Bowling Green, KY

Change the Weather History Date:

Tuesday, June 25, 2013

  Actual Average Record
Temperature  
Mean Temperature 81 °F 77 °F  
Max Temperature 94 °F 88 °F 104 °F (1914)
Min Temperature 68 °F 66 °F 50 °F (1979)
Degree Days  
Heating Degree Days 0 0  
Month to date heating degree days 0 3  
Since 1 June heating degree days 0 3  
Since 1 July heating degree days 3875 4046  
Cooling Degree Days 16 12  
Month to date cooling degree days 263 241  
Year to date cooling degree days 476 394  
Since 1 June cooling degree days 263 241  
Growing Degree Days 31 (Base 50)    
Moisture  
Dew Point 70 °F    
Average Humidity 72    
Maximum Humidity 97    
Minimum Humidity 46    
Precipitation  
Precipitation 0.00 in 0.14 in 1.48 in (1991)
Month to date precipitation 2.35 3.55  
Year to date precipitation 26.88 25.48  
Snow  
Snow 0.00 in 0.00 in 0.00 in ()
Month to date snowfall 0.0 0.0  
Since 1 June snowfall 0.0 0.0  
Since 1 July snowfall 3.8 9.1  
Snow Depth 0.00 in    
Sea Level Pressure  
Sea Level Pressure 30.02 in    
Wind  
Wind Speed 7 mph (SSW)    
Max Wind Speed 15 mph    
Max Gust Speed 23 mph    
Visibility 10 miles    
Events      
T = Trace of Precipitation, MM = Missing Value Source: NWS Daily Summary

Daily Weather History Graph

Daily Weather History Graph

Search for Another Location

Airport:

Trip Planner

Search our weather history database for the weather conditions in past years. The results will help you decide how hot, cold, wet, or windy it might be!

Date:

Astronomy

Jun. 25, 2013 Rise Set
Actual Time 5:27 AM CDT 8:09 PM CDT
Civil Twilight 4:56 AM CDT 8:39 PM CDT
Nautical Twilight 4:18 AM CDT 9:18 PM CDT
Astronomical Twilight 3:35 AM CDT 10:01 PM CDT
Moon 9:59 PM CDT 8:03 AM CDT
Length of Visible Light 15h 43m
Length of Day
14h 41m
Waning Gibbous, 92% of the Moon is Illuminated
Jun 25
Waning Gibbous
Jun 29
Last Quarter
Jul 8
New
Jul 15
First Quarter
Jul 22
Full

Hourly Weather History & Observations

Time (CDT) Temp. Heat Index Dew Point Humidity Pressure Visibility Wind Dir Wind Speed Gust Speed Precip Events Conditions
12:53 AM 73.0 °F - 69.1 °F 87% 30.08 in 10.0 mi South 6.9 mph - N/A   Clear
1:53 AM 73.0 °F - 68.0 °F 84% 30.06 in 10.0 mi South 3.5 mph - N/A   Clear
2:53 AM 72.0 °F - 68.0 °F 87% 30.05 in 10.0 mi Calm Calm - N/A   Clear
3:53 AM 70.0 °F - 68.0 °F 93% 30.06 in 9.0 mi Calm Calm - N/A   Clear
4:53 AM 69.1 °F - 66.0 °F 90% 30.05 in 9.0 mi Calm Calm - N/A   Clear
5:53 AM 69.1 °F - 66.9 °F 93% 30.07 in 8.0 mi Calm Calm - N/A   Clear
6:53 AM 73.9 °F - 70.0 °F 87% 30.09 in 10.0 mi SSW 4.6 mph - N/A   Clear
7:53 AM 78.1 °F - 72.0 °F 81% 30.09 in 10.0 mi SSW 6.9 mph - N/A   Clear
8:53 AM 82.9 °F 88.8 °F 73.0 °F 72% 30.08 in 10.0 mi SW 9.2 mph - N/A   Clear
9:53 AM 86.0 °F 92.2 °F 72.0 °F 63% 30.08 in 10.0 mi SSW 9.2 mph - N/A   Partly Cloudy
10:53 AM 88.0 °F 94.7 °F 72.0 °F 59% 30.07 in 10.0 mi SW 10.4 mph - N/A   Scattered Clouds
11:53 AM 89.1 °F 94.1 °F 70.0 °F 53% 30.06 in 10.0 mi SW 10.4 mph - N/A   Partly Cloudy
12:53 PM 91.9 °F 96.9 °F 69.1 °F 47% 30.05 in 10.0 mi Variable 6.9 mph - N/A   Partly Cloudy
1:53 PM 93.0 °F 97.9 °F 69.1 °F 45% 30.03 in 10.0 mi WSW 13.8 mph 19.6 mph N/A   Mostly Cloudy
2:53 PM 91.9 °F 96.9 °F 69.1 °F 47% 30.01 in 10.0 mi South 11.5 mph 19.6 mph N/A   Mostly Cloudy
3:53 PM 93.0 °F 99.0 °F 70.0 °F 47% 29.99 in 10.0 mi South 11.5 mph - N/A   Mostly Cloudy
4:53 PM 91.9 °F 96.9 °F 69.1 °F 47% 29.97 in 10.0 mi SSW 11.5 mph 17.3 mph N/A   Scattered Clouds
5:53 PM 91.0 °F 95.2 °F 68.0 °F 47% 29.95 in 10.0 mi WSW 11.5 mph - N/A   Partly Cloudy
6:53 PM 89.1 °F 94.1 °F 70.0 °F 53% 29.95 in 10.0 mi SSW 10.4 mph - N/A   Clear
7:53 PM 86.0 °F 90.7 °F 70.0 °F 59% 29.94 in 10.0 mi SSW 10.4 mph - N/A   Clear
8:53 PM 84.0 °F 88.4 °F 70.0 °F 63% 29.95 in 10.0 mi SSW 4.6 mph - N/A   Clear
9:53 PM 82.0 °F 86.3 °F 71.1 °F 69% 29.97 in 10.0 mi South 4.6 mph - N/A   Clear
10:53 PM 81.0 °F 84.9 °F 71.1 °F 72% 29.96 in 10.0 mi SSW 6.9 mph - N/A   Clear
11:53 PM 80.1 °F 83.6 °F 71.1 °F 74% 29.97 in 10.0 mi Calm Calm - N/A   Clear